Probability
19 45 52 68 74 71 71 71 71 65 61 61 61 55 55 48 48 52 52 48 45 39 39 32 29 26 29 19 10 10 19 16 16 16 16 13 13 13 10 6 6 0 6
19 48 55 68 68 68 71 68 65 61 58 58 58 58 55 55 52 48 45 48 48 48 45 35 32 23 19 23 10 10 13 13 16 13 10 10 6 6 10 10 10 6 6
26 45 48 68 58 61 61 61 58 61 58 61 58 58 61 61 52 52 48 45 48 48 45 35 32 23 16 16 13 13 10 6 3 0 3 3 3 6 3 10 13 6 6
29 45 48 55 55 58 61 61 55 52 52 48 55 52 55 55 55 48 45 42 39 39 35 35 29 29 19 19 19 16 10 3 0 0 0 6 3 3 3 16 16 10 10
39 42 39 48 52 52 48 45 45 42 42 39 39 39 39 39 39 39 42 35 39 35 32 29 29 26 23 23 26 16 6 3 3 0 0 3 3 3 6 10 10 6 10
32 35 42 48 45 45 42 42 35 35 39 35 35 35 35 29 26 26 26 26 23 26 26 23 23 23 23 23 19 13 6 6 0 0 3 0 3 6 6 6 16 16 16
26 26 32 42 39 35 35 35 29 29 26 26 26 26 19 26 23 23 23 19 19 26 16 16 19 13 13 16 16 13 10 6 0 0 0 0 6 3 3 6 10 13 10
23 23 26 35 35 35 32 32 29 26 26 26 23 23 23 23 23 13 16 16 16 16 16 10 6 6 10 6 13 16 13 0 0 0 3 3 3 6 3 10 13 10 10
23 23 26 29 29 29 29 29 29 26 26 23 23 19 19 19 13 13 10 10 13 10 10 6 6 6 6 10 10 13 3 0 0 0 0 6 0 3 3 6 6 6 6
19 19 23 23 23 26 26 23 23 19 19 19 19 16 13 13 13 10 10 6 6 6 10 6 6 6 6 10 10 10 0 0 0 0 6 3 0 3 3 6 6 6 3
23 19 19 19 23 19 23 23 23 16 13 13 10 6 6 10 6 6 6 3 6 6 3 6 6 6 6 6 3 3 0 0 0 0 0 0 0 3 6 10 6 6 6
16 16 16 19 19 23 19 19 19 16 13 13 13 6 6 6 6 6 0 0 0 0 0 0 0 0 0 3 3 0 3 0 0 3 0 0 0 3 3 6 3 3 6
10 13 16 19 19 16 19 16 16 13 16 10 6 6 6 6 6 3 3 0 0 0 0 0 0 0 0 3 3 3 3 3 6 3 0 0 3 3 6 6 6 3 0
10 10 10 13 13 13 13 13 13 10 10 10 10 6 6 3 3 3 3 3 3 0 0 0 0 0 0 0 0 0 0 3 3 3 0 0 0 3 3 0 3 3 3
10 10 6 10 10 13 13 13 13 10 6 10 10 3 3 3 3 3 3 3 3 3 0 0 0 0 0 0 0 0 0 0 0 0 0 0 0 0 0 0 0 0 3
6 6 6 10 10 10 10 13 10 10 6 6 3 3 0 0 0 0 0 0 3 3 0 0 0 0 0 0 0 0 0 0 0 0 0 0 0 0 0 0 0 0 0
6 6 6 6 10 10 10 6 6 10 3 0 0 0 0 0 0 0 0 0 0 0 0 0 0 0 0 0 0 0 0 0 0 0 0 0 0 0 0 0 0 0 0
6 6 6 6 6 10 6 6 3 3 3 0 0 0 0 0 0 0 0 0 0 0 0 0 0 0 0 0 0 0 0 0 0 0 0 0 0 0 0 0 0 0 0
3 6 6 3 3 6 6 3 0 0 0 0 0 0 0 0 0 0 0 0 0 0 0 0 0 0 0 0 0 0 0 0 0 0 0 0 0 0 0 0 0 0 0
0 3 6 3 3 3 3 3 0 0 0 0 0 0 0 0 0 0 0 0 0 0 0 0 0 0 0 0 0 0 0 0 0 0 0 0 0 0 0 0 0 0 0
0 0 3 3 3 3 3 0 0 0 0 0 0 0 0 0 0 0 0 0 0 0 0 0 0 0 0 0 0 0 0 0 0 0 0 0 0 0 0 0 0 0 0
0 0 0 0 3 0 0 0 0 0 0 0 0 0 0 0 0 0 0 0 0 0 0 0 0 0 0 0 0 0 0 0 0 0 0 0 0 0 0 0 0 0 0
0 0 0 0 0 0 3 3 0 0 0 0 0 0 0 0 0 0 0 0 0 0 0 0 0 0 0 0 0 0 0 0 0 0 0 0 0 0 0 0 0 0 0
0 0 0 0 0 0 3 3 0 0 0 0 0 0 0 0 0 0 0 0 0 0 0 0 0 0 0 0 0 0 0 0 0 0 0 0 0 0 0 0 0 0 0
0 0 0 0 0 0 0 3 0 0 0 0 0 0 0 0 0 0 0 0 0 0 0 0 0 0 0 0 0 0 0 0 0 0 0 0 0 0 0 0 0 0 0
0 0 0 0 0 0 0 0 0 0 0 0 0 0 0 0 0 0 0 0 0 0 0 0 0 0 0 0 0 0 0 0 0 0 0 0 0 0 0 0 0 0 0
Height
5862 5863 5865 5866 5867 5868 5869 5869 5870 5871 5871 5872 5872 5873 5873 5873 5873 5873 5873 5873 5872 5872 5872 5872 5872 5871 5871 5871 5870 5870 5869 5869 5868 5867 5867 5866 5865 5864 5864 5863 5862 5861 5860
5859 5861 5862 5863 5864 5865 5866 5867 5868 5869 5869 5870 5870 5871 5871 5871 5871 5871 5871 5871 5871 5871 5870 5870 5870 5869 5869 5869 5868 5868 5867 5867 5866 5865 5864 5864 5863 5862 5861 5860 5859 5859 5858
5856 5857 5859 5860 5861 5863 5864 5865 5865 5866 5867 5868 5868 5869 5869 5869 5869 5869 5869 5869 5869 5868 5868 5868 5868 5867 5867 5867 5866 5865 5865 5864 5863 5863 5862 5861 5860 5859 5858 5857 5856 5856 5855
5852 5853 5855 5857 5858 5859 5861 5862 5863 5864 5864 5865 5865 5866 5866 5866 5867 5867 5866 5866 5866 5866 5866 5865 5865 5865 5864 5864 5863 5863 5862 5861 5861 5860 5859 5858 5857 5856 5855 5854 5853 5852 5852
5848 5849 5851 5853 5854 5856 5857 5858 5860 5861 5862 5862 5863 5863 5863 5864 5864 5864 5864 5864 5864 5863 5863 5863 5862 5862 5861 5861 5860 5860 5859 5858 5857 5856 5856 5855 5854 5853 5852 5851 5850 5849 5848
5843 5845 5847 5849 5851 5852 5853 5855 5856 5857 5858 5859 5859 5860 5860 5861 5861 5861 5861 5861 5860 5860 5860 5859 5859 5859 5858 5857 5857 5856 5855 5855 5854 5853 5852 5851 5850 5849 5848 5847 5846 5845 5843
5838 5840 5842 5844 5846 5848 5849 5851 5852 5854 5855 5855 5856 5856 5857 5857 5857 5857 5857 5857 5857 5857 5856 5856 5855 5855 5855 5854 5853 5853 5852 5851 5850 5849 5848 5847 5846 5845 5844 5843 5842 5840 5839
5833 5835 5838 5840 5842 5844 5845 5847 5848 5849 5850 5851 5852 5852 5853 5853 5853 5853 5853 5853 5853 5853 5852 5852 5852 5851 5851 5850 5849 5849 5848 5847 5846 5845 5844 5843 5842 5840 5839 5838 5837 5836 5834
5828 5830 5832 5835 5837 5839 5840 5842 5844 5845 5846 5847 5847 5848 5848 5849 5849 5849 5849 5849 5849 5849 5848 5848 5848 5847 5847 5846 5845 5845 5844 5843 5842 5841 5839 5838 5837 5836 5834 5833 5832 5831 5829
5822 5825 5827 5829 5832 5834 5836 5837 5839 5840 5841 5842 5843 5843 5844 5844 5844 5844 5845 5845 5844 5844 5844 5844 5843 5843 5842 5842 5841 5840 5839 5838 5837 5836 5835 5834 5832 5831 5829 5828 5827 5825 5824
5816 5819 5821 5824 5826 5828 5830 5832 5834 5835 5836 5837 5838 5838 5839 5839 5839 5839 5840 5840 5840 5840 5839 5839 5839 5838 5838 5837 5836 5836 5835 5833 5832 5831 5830 5828 5827 5826 5824 5823 5821 5820 5819
5810 5813 5815 5818 5820 5823 5825 5827 5828 5830 5831 5832 5832 5833 5834 5834 5834 5835 5835 5835 5835 5835 5835 5834 5834 5833 5833 5832 5831 5830 5829 5828 5827 5826 5824 5823 5822 5820 5819 5817 5815 5814 5812
5803 5806 5809 5812 5814 5817 5819 5821 5822 5824 5825 5826 5827 5828 5828 5829 5829 5830 5830 5830 5830 5829 5829 5829 5828 5828 5827 5826 5826 5825 5824 5823 5821 5820 5819 5817 5816 5814 5813 5811 5809 5807 5806
5796 5799 5802 5805 5808 5810 5812 5814 5816 5818 5819 5820 5821 5822 5823 5823 5824 5824 5824 5824 5824 5824 5824 5823 5823 5822 5822 5821 5820 5819 5818 5817 5815 5814 5813 5811 5810 5808 5806 5805 5803 5801 5799
5789 5792 5796 5799 5801 5804 5806 5808 5810 5812 5813 5814 5815 5816 5817 5818 5818 5818 5818 5818 5818 5818 5818 5817 5817 5816 5816 5815 5814 5813 5811 5810 5809 5808 5806 5805 5803 5802 5800 5798 5796 5794 5791
5782 5785 5788 5791 5794 5797 5799 5801 5803 5805 5807 5808 5809 5810 5811 5811 5812 5812 5812 5812 5812 5812 5811 5811 5811 5810 5809 5808 5807 5806 5805 5803 5802 5801 5799 5798 5796 5794 5792 5790 5788 5786 5783
5774 5777 5781 5784 5787 5790 5792 5794 5796 5798 5800 5801 5802 5803 5804 5805 5805 5806 5806 5806 5806 5805 5805 5805 5804 5803 5802 5801 5800 5799 5798 5796 5795 5793 5792 5790 5788 5786 5784 5782 5780 5777 5775
5766 5770 5773 5776 5779 5782 5785 5787 5789 5791 5793 5794 5796 5796 5797 5798 5798 5799 5799 5799 5799 5798 5798 5798 5797 5796 5795 5794 5793 5792 5791 5789 5787 5786 5784 5782 5780 5778 5776 5773 5771 5768 5765
5759 5762 5765 5769 5772 5775 5777 5780 5782 5784 5786 5787 5788 5790 5790 5791 5791 5792 5792 5792 5792 5791 5791 5791 5790 5789 5788 5787 5786 5784 5783 5781 5780 5778 5776 5774 5771 5769 5767 5764 5761 5758 5755
5751 5755 5758 5761 5764 5767 5770 5772 5775 5777 5779 5780 5781 5782 5783 5784 5784 5785 5785 5785 5785 5784 5784 5783 5783 5782 5781 5780 5778 5777 5775 5773 5772 5769 5767 5765 5762 5760 5757 5754 5752 5749 5745
5743 5747 5751 5754 5757 5760 5762 5765 5767 5770 5771 5773 5774 5775 5776 5777 5777 5777 5778 5777 5777 5777 5777 5776 5775 5774 5773 5772 5771 5770 5768 5766 5763 5761 5759 5756 5754 5751 5748 5745 5742 5738 5735
5736 5739 5743 5746 5749 5752 5755 5757 5760 5762 5764 5766 5767 5768 5769 5769 5770 5770 5770 5770 5770 5770 5769 5769 5768 5767 5765 5764 5763 5762 5761 5759 5756 5753 5750 5747 5745 5742 5739 5735 5731 5728 5724
5728 5732 5735 5738 5741 5744 5747 5750 5752 5754 5756 5758 5760 5761 5762 5762 5763 5763 5763 5763 5763 5762 5762 5761 5760 5759 5758 5756 5754 5753 5751 5750 5748 5746 5742 5739 5736 5732 5729 5726 5722 5717 5713
5720 5723 5727 5730 5733 5736 5739 5742 5745 5747 5749 5751 5752 5753 5754 5755 5755 5755 5755 5755 5755 5755 5754 5753 5752 5750 5749 5748 5746 5744 5742 5739 5738 5736 5734 5730 5727 5723 5719 5716 5711 5707 5702
5711 5715 5719 5722 5726 5729 5732 5735 5737 5739 5741 5743 5744 5746 5747 5747 5747 5748 5748 5748 5747 5746 5746 5744 5743 5742 5740 5739 5737 5735 5732 5730 5727 5726 5724 5721 5718 5714 5710 5705 5701 5696 5691
5703 5707 5710 5714 5718 5721 5724 5727 5730 5732 5734 5735 5737 5738 5739 5740 5740 5740 5740 5740 5739 5738 5738 5736 5735 5733 5732 5730 5728 5726 5723 5721 5718 5716 5713 5711 5708 5704 5699 5695 5690 5685 5680
Wind_Speed
18 17 16 16 15 14 13 13 13 13 12 12 11 11 11 11 11 10 10 10 10 10 10 10 10 11 11 11 11 12 12 13 13 13 13 14 14 15 15 15 15 15 15
19 19 18 17 17 16 15 15 14 14 14 13 13 13 13 13 13 12 12 12 12 12 12 12 12 12 13 13 13 14 14 14 15 14 15 15 16 16 17 17 17 16 16
21 20 20 19 18 18 17 16 16 16 15 15 14 14 14 14 14 14 13 13 13 13 14 14 14 14 15 15 15 16 16 16 16 16 16 17 17 17 18 18 18 18 18
23 22 21 20 20 19 18 18 17 17 17 17 16 16 16 15 15 15 15 15 15 15 15 16 16 16 17 17 17 17 17 18 18 18 18 18 18 19 19 19 19 20 19
24 23 23 22 21 21 20 19 19 19 18 18 18 18 17 17 17 17 17 17 17 17 17 17 17 17 18 18 18 18 19 19 19 19 19 19 20 20 20 20 21 21 21
26 25 24 24 23 22 21 21 20 20 19 19 19 19 19 19 19 19 19 19 19 19 19 19 19 19 19 19 19 19 20 20 20 21 21 21 21 22 22 22 22 23 23
27 27 26 25 24 23 23 22 22 21 21 21 21 20 20 20 21 21 21 20 20 20 20 20 20 21 21 21 21 21 21 21 21 21 22 23 23 24 24 24 24 24 24
29 28 27 26 26 25 25 24 23 23 23 22 22 22 22 22 22 22 22 22 22 22 21 21 22 22 22 22 22 22 22 22 22 23 23 24 24 25 25 26 26 25 25
30 29 28 28 27 27 26 25 25 25 24 24 24 24 23 23 23 23 23 23 22 22 22 22 22 22 22 22 23 23 23 23 24 24 25 25 26 26 27 26 26 26 26
31 31 30 29 29 28 27 27 26 26 26 25 25 25 25 24 24 24 24 23 23 23 23 23 23 23 23 23 24 24 24 25 25 26 26 27 27 27 27 26 26 27 27
33 32 31 31 30 30 29 28 28 27 27 27 26 26 26 25 25 25 25 25 25 24 24 24 24 25 25 25 25 25 26 26 26 27 27 27 28 28 28 28 28 29 29
34 33 33 32 32 31 31 30 29 29 28 28 28 27 27 27 26 26 26 26 26 26 26 26 26 26 26 26 26 27 27 27 28 28 28 28 28 28 28 29 29 30 31
35 35 34 34 33 32 32 31 31 30 29 29 28 28 28 27 27 27 27 27 27 27 27 28 27 27 27 27 28 28 28 29 29 29 29 29 29 29 29 30 31 31 32
37 36 35 35 34 33 33 32 31 31 30 30 29 29 29 29 28 28 28 28 28 28 29 29 28 28 29 29 29 30 30 30 31 31 31 31 31 31 31 31 32 33 34
37 37 36 36 35 34 33 33 32 31 31 31 30 30 30 30 29 29 29 29 29 29 29 30 30 30 30 31 31 31 31 32 32 32 32 32 32 32 33 33 34 35 35
38 38 38 37 37 36 35 34 33 32 32 31 31 31 31 31 31 31 31 31 31 31 31 31 31 32 32 32 32 33 33 33 33 34 34 34 34 35 35 35 36 37 38
39 39 38 38 38 37 36 35 34 34 33 33 32 32 32 32 32 32 32 32 32 32 32 33 33 33 33 33 33 33 34 34 34 35 35 35 36 36 37 38 38 38 39
39 39 39 38 38 37 37 36 35 34 34 34 34 33 33 33 33 33 33 33 33 33 33 34 34 33 34 34 34 34 34 35 35 36 36 37 37 38 38 39 39 40 41
39 39 38 38 37 37 36 36 35 35 34 34 34 34 34 34 33 34 34 34 34 34 34 34 34 34 34 34 34 35 35 36 36 36 37 38 38 39 39 40 40 41 42
39 39 38 38 37 37 37 36 36 35 34 34 34 34 34 33 33 33 33 33 33 34 34 34 34 34 34 35 35 35 36 36 37 37 38 39 39 39 39 40 41 42 43
39 39 39 38 37 37 36 36 36 35 34 34 34 33 33 33 33 34 33 33 33 33 33 33 34 34 34 34 35 36 36 37 37 38 38 39 39 39 40 41 42 43 44
39 39 39 38 38 37 37 36 35 35 34 34 33 32 33 33 33 33 33 33 33 33 33 33 34 34 35 35 36 36 37 37 38 38 39 39 40 40 41 42 43 44 45
39 39 39 38 38 38 37 36 35 35 34 34 33 33 32 33 33 33 33 32 33 33 33 34 35 35 35 36 37 37 38 38 38 38 38 39 40 41 41 43 44 44 45
40 39 39 39 39 38 38 37 35 35 34 34 33 32 32 32 32 32 32 32 33 33 34 35 36 36 37 37 38 38 39 40 39 39 39 40 40 41 42 43 44 45 45
40 40 39 39 38 38 37 36 35 35 34 34 33 32 32 31 31 32 32 32 33 34 34 35 35 36 36 36 37 37 38 39 39 40 40 40 41 42 43 44 45 45 45
39 39 39 39 38 38 37 36 35 35 34 34 33 33 33 32 32 32 32 32 32 32 33 33 34 34 35 35 36 37 37 38 39 40 41 41 42 43 44 45 46 46 46
Wind_Direction
236 236 235 234 234 235 237 238 238 239 239 241 245 249 251 255 258 260 261 263 264 266 268 270 272 274 276 279 282 285 288 292 294 294 293 292 293 294 293 292 292 291 291
237 237 237 236 236 237 239 240 242 243 244 245 247 250 253 257 260 261 262 264 265 266 268 270 273 275 277 279 281 284 286 289 292 291 290 291 292 293 294 290 290 290 290
238 238 238 239 239 239 240 242 244 245 245 248 250 253 255 258 261 262 262 264 266 268 269 271 273 275 277 279 280 282 284 287 288 288 289 289 290 291 292 291 288 287 288
239 239 239 239 240 240 242 243 245 246 247 249 252 254 256 259 261 262 262 263 265 268 270 272 274 275 277 279 281 282 284 285 285 286 287 287 288 289 291 291 287 287 286
239 239 239 240 242 243 243 244 245 247 249 250 251 254 256 259 261 263 264 264 265 268 271 273 274 275 277 279 281 283 284 284 284 284 285 285 286 287 288 290 288 286 286
237 239 240 241 242 243 244 245 245 247 250 252 253 255 257 259 261 263 264 266 268 269 270 272 274 276 278 279 280 282 283 283 284 284 283 284 285 286 286 288 287 287 287
238 238 239 240 241 242 244 246 247 249 252 254 256 256 258 260 262 264 265 266 268 269 270 271 274 275 277 278 279 281 283 284 284 284 283 284 285 285 285 286 285 285 286
237 237 238 239 241 242 243 246 249 251 253 255 257 258 259 262 264 265 266 267 268 269 270 271 274 275 278 279 280 280 281 282 283 284 285 285 285 284 284 284 284 284 284
236 237 238 239 241 243 244 247 250 252 254 256 258 259 261 262 263 265 266 267 269 269 270 271 273 276 277 278 279 280 281 281 282 284 285 285 286 286 285 284 282 282 283
236 237 238 239 241 243 245 247 250 252 254 256 258 260 261 261 262 264 265 267 268 269 270 272 274 275 277 278 279 281 281 282 282 283 284 284 285 286 286 284 282 282 283
236 237 238 240 241 243 245 247 250 253 255 256 258 260 261 261 262 264 265 266 267 269 271 273 274 275 277 278 279 280 281 282 283 284 284 285 285 285 285 284 284 283 283
236 237 238 240 242 244 246 248 250 252 255 256 258 259 260 261 262 264 265 266 267 269 271 273 274 275 276 278 278 280 281 282 282 283 284 285 285 285 285 285 285 285 284
235 236 238 240 242 243 246 248 249 252 254 256 257 258 260 261 262 264 265 267 268 269 271 272 274 275 276 277 279 280 281 281 281 283 284 284 285 285 286 286 286 286 286
235 237 238 240 241 243 245 247 249 251 253 254 256 257 259 262 263 264 267 268 269 270 271 272 273 275 276 277 279 280 280 281 282 282 283 284 285 285 285 286 287 288 288
235 237 239 240 241 243 245 247 249 251 252 254 256 257 259 262 264 265 267 269 270 270 271 272 274 275 276 277 278 279 280 281 282 282 283 283 284 284 285 286 287 287 288
236 237 239 240 242 243 245 246 249 251 253 254 255 257 260 262 264 266 268 269 270 270 271 272 274 276 277 277 279 280 280 281 281 282 283 283 284 285 285 286 287 288 288
236 237 239 240 242 244 246 247 249 250 252 254 255 257 259 261 263 266 267 269 269 270 271 273 274 276 277 277 279 280 280 280 281 282 283 284 284 285 285 286 286 287 287
237 238 239 241 242 244 246 247 248 250 252 254 255 257 259 262 264 266 267 268 269 270 271 273 274 275 277 278 279 280 280 280 281 283 283 284 284 285 285 286 286 286 286
236 238 239 241 242 244 245 246 248 250 251 253 255 257 260 262 265 266 267 268 269 270 272 273 275 276 277 278 279 280 281 281 282 283 284 285 285 286 286 286 286 287 287
237 238 239 241 242 243 244 246 247 250 251 254 256 258 260 262 264 266 267 269 270 271 273 274 275 276 277 279 279 280 282 283 284 284 285 286 286 287 288 288 288 288 288
237 237 239 240 242 242 244 246 248 250 252 254 257 259 261 262 264 265 267 269 270 271 273 274 276 276 278 279 280 281 283 284 285 285 285 286 287 288 289 289 290 290 290
237 237 238 240 241 242 244 246 248 249 251 253 256 258 260 262 263 265 267 269 271 271 273 274 276 277 279 280 281 282 283 284 285 285 286 287 288 289 290 291 291 292 293
236 238 238 240 241 242 244 246 248 249 251 252 255 258 260 262 264 265 267 269 270 272 274 275 276 278 279 281 282 283 283 283 283 284 286 287 288 290 291 292 293 294 295
237 237 238 239 241 242 243 245 247 248 250 252 254 258 260 263 264 265 267 268 270 272 274 275 276 278 280 281 282 283 284 285 284 284 285 287 289 290 292 293 294 295 296
236 237 238 239 241 242 243 244 246 247 249 251 254 257 260 262 264 266 268 270 271 273 274 276 278 279 281 283 283 284 285 285 285 286 286 287 289 291 292 294 295 296 297
237 236 237 239 241 241 241 243 246 248 250 251 254 257 259 262 264 266 269 270 272 273 275 277 279 281 282 284 285 286 287 287 288 288 288 289 290 292 293 295 296 296 297